Wind_Speed
84 85 85 84 87 86 87 80 80 72 74 77 78 76 73 69 70 64 60 57 56 57 56 56 55 53 48 45 46 44 42 42 41 42 41 39 38 38 37 37 37 36 34 34
93 91 89 90 88 87 87 81 81 76 72 72 70 69 72 71 69 66 63 63 62 62 62 61 57 57 54 51 49 46 43 42 41 42 41 38 38 36 34 34 36 36 36 37
88 87 89 94 88 87 82 78 79 78 76 73 71 70 72 69 67 70 69 67 64 61 59 58 57 53 52 52 49 47 44 42 40 41 39 38 36 34 31 31 32 33 35 37
84 88 95 82 85 83 82 84 83 83 79 80 76 70 71 70 63 64 60 58 56 56 58 57 56 53 47 45 45 45 43 41 41 39 39 37 33 32 29 28 27 29 29 28
85 85 85 84 86 83 80 81 80 83 82 84 82 81 79 76 68 69 63 60 56 57 56 55 53 50 48 48 46 44 44 42 40 39 38 36 33 30 29 28 27 27 27 28
91 91 89 76 83 89 88 87 83 86 85 83 83 84 80 79 76 74 68 60 59 60 58 54 53 53 54 53 50 47 43 41 41 39 37 36 34 30 29 27 27 28 28 29
96 93 88 88 86 86 84 77 85 86 82 82 83 80 75 78 74 68 68 61 59 58 56 55 54 51 49 49 47 43 40 41 42 40 37 36 35 32 31 30 27 26 26 26
100 98 98 92 89 90 90 81 82 80 79 79 80 74 74 76 69 69 62 58 56 53 53 53 54 52 51 49 47 42 41 41 42 42 38 36 36 35 33 30 28 26 25 26
96 104 99 96 96 96 90 82 80 76 77 79 80 74 76 74 70 69 60 61 57 55 54 53 51 50 49 48 45 42 42 43 44 42 39 37 37 36 35 33 32 31 30 29
86 94 100 104 101 97 94 89 87 85 82 81 82 78 70 72 75 67 62 61 59 58 56 54 53 51 49 47 44 42 44 46 46 43 41 41 39 39 39 37 35 34 34 34
76 83 92 94 101 103 100 97 94 90 89 88 88 79 76 74 74 67 65 63 61 60 58 55 55 51 51 49 46 44 47 46 46 44 44 44 40 39 40 40 38 38 39 41
68 71 77 87 92 95 98 99 98 95 92 92 91 88 84 80 74 67 67 65 64 62 59 55 55 53 50 50 51 50 50 50 49 49 45 44 42 41 41 39 38 40 42 42
65 66 67 74 80 90 93 95 86 91 97 99 95 88 86 83 73 66 68 65 64 62 62 58 56 57 55 51 48 51 51 52 53 52 49 47 47 43 43 43 44 46 45 45
63 62 65 68 72 75 82 85 82 78 79 85 90 92 90 87 78 72 70 68 67 65 65 62 60 59 58 57 53 52 50 48 50 51 52 52 51 51 50 50 49 47 45 45
63 63 63 65 69 73 74 76 74 71 69 71 76 78 83 90 86 77 74 73 72 71 69 65 62 60 58 59 59 59 59 56 53 52 52 50 52 55 52 51 51 44 48 50
60 62 62 65 68 69 67 70 68 66 67 70 73 75 80 84 85 81 78 77 74 71 69 68 66 62 61 60 58 57 58 56 57 55 53 53 53 52 54 54 50 52 54 53
61 64 64 68 69 68 69 67 68 68 68 71 74 78 82 86 87 84 82 80 78 75 73 71 70 67 64 63 62 59 59 55 56 59 59 57 55 57 58 58 58 55 53 52
65 68 67 66 67 67 67 67 69 71 73 74 76 79 85 88 89 87 85 83 81 79 77 76 74 72 69 67 66 65 64 63 61 62 62 63 63 63 61 59 59 59 59 59
65 69 67 67 67 68 69 68 69 73 75 76 77 81 85 90 92 91 89 87 85 82 80 79 78 77 75 71 69 68 66 66 65 67 69 68 66 67 67 66 63 63 64 64
66 68 69 68 68 67 70 71 70 73 74 77 79 81 85 90 94 94 94 93 89 86 84 82 80 79 78 78 75 72 70 69 69 69 71 71 71 72 71 71 71 72 73 72
67 69 69 70 70 70 72 74 75 72 71 77 81 84 87 90 94 100 99 95 91 89 87 85 84 83 82 81 79 77 74 71 71 70 72 75 74 73 73 73 72 72 70 68
67 69 71 71 73 74 73 74 76 74 76 80 80 85 89 91 96 96 94 95 95 94 91 90 88 86 85 83 82 81 79 77 76 75 75 76 77 76 74 74 73 73 73 70
65 68 70 71 73 74 75 75 76 76 76 81 83 84 85 88 93 94 94 93 93 92 92 92 92 90 89 89 88 86 85 82 81 79 79 77 77 77 77 76 77 76 74 71
64 65 66 68 70 72 74 76 75 75 75 78 83 84 85 86 88 90 91 92 89 90 91 92 93 94 94 92 90 88 87 86 85 82 81 79 78 79 78 76 76 77 78 73
60 61 63 64 66 69 71 73 75 74 74 74 75 80 83 85 85 85 84 85 83 85 86 90 93 93 94 93 93 91 88 86 85 83 81 79 79 79 78 76 76 76 80 78
58 62 64 64 66 68 70 71 72 73 72 73 73 73 73 76 80 82 82 82 81 79 78 82 86 89 90 91 91 91 91 90 89 87 85 82 81 80 79 78 77 78 81 82
46 53 60 62 62 63 65 68 68 69 70 72 73 74 74 74 72 72 76 79 79 79 77 79 82 85 87 88 89 90 90 90 90 90 89 88 86 83 83 83 83 82 82 82
Wind_Direction
225 228 227 228 231 231 233 233 235 237 235 239 239 242 243 246 249 250 251 251 254 258 261 261 264 261 262 265 267 270 275 281 288 295 293 288 291 288 283 280 278 279 283 285
228 228 229 230 232 232 232 231 233 231 235 237 240 240 243 242 247 250 251 253 255 260 260 263 265 258 257 261 265 269 275 282 288 296 296 295 295 290 282 278 274 278 279 281
227 229 232 232 230 233 235 234 235 233 233 234 236 238 242 242 244 248 249 251 255 256 259 264 263 261 260 260 265 270 273 280 286 294 295 298 296 290 285 281 279 279 280 281
226 228 230 231 232 233 234 232 232 233 233 237 237 237 238 240 238 242 244 247 250 255 259 260 259 257 260 260 263 266 271 278 282 289 293 293 297 293 286 280 280 280 283 285
223 227 229 227 232 231 232 234 235 236 235 235 237 238 240 239 239 247 250 252 253 255 257 256 254 251 254 256 260 266 271 273 277 283 288 293 297 295 287 279 280 283 285 288
224 225 226 226 230 229 227 227 229 232 233 235 237 240 241 243 243 246 249 250 251 252 253 255 255 255 254 258 262 264 266 267 271 278 284 289 293 295 291 289 285 287 289 290
226 227 227 226 227 231 231 228 230 230 232 233 236 237 240 243 242 243 246 246 250 253 255 255 253 252 252 254 256 258 260 263 269 275 279 285 288 293 294 291 293 293 295 296
226 227 227 227 227 228 229 227 230 232 232 234 235 236 239 244 241 242 242 245 247 251 254 253 252 251 252 254 255 256 257 261 265 271 275 282 284 287 290 292 293 294 297 299
223 227 227 228 229 231 230 229 227 228 231 232 234 233 233 238 240 242 241 243 246 249 252 254 251 246 248 252 253 255 256 258 261 268 272 276 280 282 282 288 292 293 295 298
222 223 226 226 227 229 230 228 229 229 229 233 233 229 234 234 237 237 239 243 246 248 251 253 249 246 245 249 252 255 257 256 259 262 270 274 278 278 279 284 288 290 292 295
223 223 224 226 228 229 230 230 229 229 229 230 234 233 232 236 235 234 235 239 242 246 248 251 252 250 243 244 248 250 253 255 254 257 265 272 276 278 278 283 287 288 289 292
222 222 223 226 228 231 232 232 230 230 229 230 231 233 234 235 236 232 235 238 241 244 248 249 251 251 244 242 244 247 251 251 254 256 264 271 271 276 277 280 288 293 289 290
221 219 219 225 225 229 232 237 232 230 230 230 231 229 231 232 233 232 236 235 240 242 246 247 246 246 244 242 245 247 248 249 253 257 262 263 265 273 278 274 283 288 289 288
221 218 217 219 224 224 229 233 235 234 230 229 231 230 228 232 231 231 234 235 236 240 243 245 244 244 245 244 244 244 243 250 254 256 259 262 263 263 272 275 279 286 288 287
216 218 217 218 222 224 224 229 230 228 225 224 226 227 226 228 231 231 233 234 236 238 241 243 244 244 246 247 246 246 247 249 253 255 258 262 261 261 265 270 276 282 283 286
215 218 214 217 221 225 222 223 225 224 220 219 221 222 220 223 227 230 232 234 237 239 242 242 242 244 245 247 246 246 250 250 254 258 261 260 261 264 266 270 274 277 275 279
215 219 216 216 219 222 224 221 221 220 220 219 220 221 220 222 226 230 233 234 236 237 239 240 241 240 242 245 249 248 246 248 250 254 256 259 262 264 268 273 275 277 278 278
214 218 220 219 220 222 225 224 220 221 220 219 220 222 222 223 226 229 232 234 236 237 238 239 239 240 243 246 247 246 249 250 250 253 255 258 261 263 264 266 267 270 274 275
216 220 221 220 220 221 224 225 223 222 222 221 221 223 224 225 226 229 232 234 235 237 239 239 240 240 243 246 249 251 251 253 254 255 257 258 259 260 263 266 269 271 273 275
218 219 223 222 221 220 223 227 225 226 225 224 222 224 227 229 229 230 232 233 235 238 239 240 241 242 243 246 248 250 252 253 254 255 258 260 260 261 262 263 266 268 271 274
220 221 222 222 225 224 222 225 228 225 224 227 225 225 227 230 232 231 230 235 237 239 240 242 244 245 245 247 248 249 251 251 254 254 256 258 261 263 264 265 266 268 271 274
222 222 223 223 223 226 225 226 226 226 224 227 229 228 227 230 234 236 235 233 235 239 242 244 245 247 247 248 249 249 251 252 254 255 257 259 259 259 261 264 267 269 271 273
224 224 225 226 226 226 227 228 229 228 223 226 229 231 233 232 235 237 239 238 237 237 239 242 244 246 248 250 251 251 252 252 254 255 257 257 258 260 261 264 266 269 271 272
228 229 228 228 229 229 229 230 232 231 230 225 227 231 234 236 237 239 240 242 240 241 241 242 244 245 246 247 249 252 253 254 254 255 255 255 256 257 259 261 264 267 269 270
230 232 233 233 234 234 234 234 235 236 235 235 232 230 233 236 239 241 242 244 243 242 242 243 244 245 247 248 249 249 249 251 254 255 254 255 256 257 259 262 264 266 270 270
226 229 231 232 233 233 235 236 237 238 239 240 240 240 239 237 237 240 242 243 244 244 243 243 243 244 244 245 246 247 247 247 248 250 253 254 255 257 258 260 262 264 267 271
232 233 234 234 234 234 236 237 238 238 239 240 241 243 243 244 242 241 240 240 243 244 242 241 241 242 242 243 244 245 245 246 248 249 250 252 254 255 257 258 260 261 264 266
Height
10392 10397 10408 10418 10422 10435 10441 10465 10468 10488 10495 10498 10512 10518 10526 10533 10538 10547 10553 10559 10561 10564 10567 10569 10573 10577 10580 10582 10583 10585 10585 10584 10583 10580 10577 10574 10570 10567 10565 10563 10562 10561 10559 10557
10365 10378 10386 10396 10409 10420 10429 10449 10455 10473 10482 10487 10496 10504 10510 10521 10528 10534 10540 10543 10549 10553 10555 10557 10561 10566 10570 10572 10573 10574 10576 10576 10574 10571 10568 10565 10561 10557 10555 10554 10554 10552 10551 10549
10354 10366 10371 10374 10395 10407 10426 10443 10448 10457 10472 10472 10480 10491 10495 10507 10519 10520 10525 10530 10536 10540 10544 10547 10549 10554 10558 10561 10563 10565 10567 10566 10566 10563 10560 10556 10553 10550 10547 10546 10545 10544 10543 10541
10337 10343 10343 10383 10383 10397 10410 10417 10428 10436 10451 10458 10467 10476 10481 10490 10507 10505 10513 10520 10525 10529 10531 10535 10539 10543 10547 10550 10552 10555 10557 10558 10557 10555 10553 10550 10547 10544 10541 10539 10538 10537 10535 10533
10317 10326 10342 10357 10364 10381 10392 10404 10417 10423 10432 10437 10446 10455 10462 10474 10492 10493 10503 10507 10513 10516 10519 10524 10527 10531 10535 10538 10541 10545 10547 10549 10549 10547 10546 10544 10541 10538 10536 10533 10531 10529 10527 10525
10299 10306 10321 10354 10348 10347 10357 10373 10390 10396 10409 10421 10432 10434 10454 10462 10474 10483 10491 10495 10499 10502 10507 10514 10516 10519 10524 10527 10531 10534 10537 10539 10539 10538 10538 10537 10535 10533 10530 10527 10524 10522 10520 10518
10279 10289 10309 10317 10329 10335 10349 10378 10370 10379 10394 10405 10413 10430 10437 10439 10455 10471 10472 10484 10488 10492 10496 10499 10504 10508 10511 10515 10519 10524 10527 10529 10529 10529 10529 10528 10527 10526 10523 10521 10519 10516 10514 10512
10257 10271 10283 10298 10309 10314 10323 10348 10359 10376 10389 10395 10399 10420 10424 10426 10445 10450 10465 10471 10476 10480 10482 10485 10491 10496 10500 10504 10508 10514 10516 10518 10519 10519 10520 10520 10519 10518 10516 10514 10513 10511 10509 10507
10240 10248 10264 10278 10290 10296 10315 10336 10348 10363 10368 10376 10385 10401 10411 10413 10426 10434 10453 10455 10463 10467 10469 10473 10478 10482 10487 10492 10497 10503 10505 10507 10508 10509 10510 10510 10510 10510 10508 10507 10506 10504 10502 10500
10217 10228 10240 10255 10266 10281 10296 10315 10329 10341 10352 10359 10366 10382 10391 10400 10404 10425 10436 10441 10448 10454 10458 10459 10464 10470 10475 10482 10486 10491 10493 10495 10497 10499 10501 10500 10501 10501 10500 10498 10498 10497 10495 10492
10199 10214 10225 10237 10248 10263 10275 10289 10307 10322 10335 10346 10353 10371 10381 10380 10388 10411 10419 10425 10433 10439 10444 10447 10451 10458 10465 10470 10475 10479 10481 10483 10485 10487 10489 10490 10491 10491 10491 10490 10490 10488 10486 10483
10186 10200 10212 10222 10237 10244 10255 10267 10288 10302 10315 10326 10340 10350 10358 10366 10374 10395 10402 10412 10418 10425 10431 10437 10439 10445 10452 10458 10462 10467 10469 10472 10474 10476 10478 10480 10481 10481 10481 10481 10480 10479 10476 10474
10174 10187 10199 10206 10222 10230 10240 10248 10262 10279 10294 10308 10319 10330 10339 10352 10367 10382 10386 10400 10402 10412 10418 10424 10428 10432 10438 10444 10449 10453 10457 10460 10463 10464 10467 10469 10469 10470 10470 10470 10470 10468 10466 10464
10163 10176 10186 10195 10204 10216 10223 10232 10246 10261 10275 10288 10298 10312 10332 10340 10348 10361 10370 10383 10390 10397 10403 10409 10415 10419 10424 10430 10436 10439 10444 10447 10449 10451 10453 10457 10457 10457 10460 10458 10459 10458 10456 10453
10151 10163 10175 10184 10190 10198 10210 10219 10233 10244 10256 10269 10281 10298 10312 10322 10333 10344 10353 10363 10372 10380 10388 10395 10401 10406 10412 10415 10421 10425 10430 10434 10435 10438 10440 10445 10445 10443 10446 10445 10446 10447 10446 10442
10142 10151 10163 10171 10177 10185 10197 10207 10219 10231 10243 10255 10267 10280 10293 10305 10316 10326 10337 10347 10357 10366 10373 10380 10386 10391 10396 10400 10406 10412 10414 10420 10422 10423 10427 10430 10431 10430 10432 10433 10434 10433 10432 10431
10132 10139 10149 10156 10164 10173 10182 10194 10206 10218 10230 10242 10253 10264 10276 10287 10298 10309 10318 10327 10337 10347 10354 10362 10369 10374 10378 10384 10390 10397 10401 10405 10409 10410 10413 10415 10417 10417 10418 10419 10421 10420 10419 10418
10115 10122 10132 10145 10154 10163 10171 10182 10194 10203 10214 10226 10237 10248 10259 10269 10280 10291 10300 10310 10319 10328 10336 10343 10351 10358 10364 10369 10374 10381 10385 10390 10396 10395 10398 10400 10402 10403 10405 10405 10405 10406 10405 10404
10103 10109 10118 10130 10141 10151 10159 10167 10178 10187 10198 10210 10223 10233 10242 10251 10261 10272 10281 10289 10299 10308 10316 10324 10332 10341 10349 10353 10358 10364 10369 10374 10378 10380 10381 10383 10387 10387 10389 10390 10392 10391 10390 10389
10089 10098 10104 10115 10125 10137 10145 10152 10163 10172 10183 10194 10205 10214 10223 10232 10241 10252 10260 10269 10280 10289 10298 10305 10313 10322 10331 10335 10341 10347 10352 10357 10359 10364 10363 10366 10370 10371 10373 10375 10377 10376 10375 10375
10076 10084 10093 10102 10111 10120 10128 10135 10144 10155 10167 10174 10185 10195 10203 10210 10217 10226 10239 10251 10262 10270 10279 10287 10295 10302 10310 10316 10322 10328 10333 10339 10341 10345 10347 10349 10352 10355 10355 10356 10359 10358 10358 10359
10064 10071 10077 10085 10093 10101 10109 10118 10127 10138 10149 10156 10164 10173 10182 10190 10195 10208 10221 10232 10243 10251 10260 10267 10275 10281 10286 10293 10300 10306 10312 10319 10322 10326 10329 10331 10334 10336 10337 10338 10340 10339 10340 10343
10049 10057 10064 10072 10079 10087 10095 10102 10109 10119 10131 10139 10146 10155 10164 10174 10180 10189 10199 10210 10221 10231 10240 10245 10252 10259 10264 10269 10276 10283 10289 10296 10301 10306 10308 10312 10314 10316 10319 10322 10321 10321 10322 10325
10038 10045 10053 10060 10067 10074 10081 10088 10095 10104 10112 10122 10129 10137 10146 10153 10161 10169 10178 10185 10197 10207 10216 10222 10227 10233 10239 10247 10254 10259 10265 10271 10277 10284 10288 10292 10294 10296 10299 10302 10304 10303 10303 10308
10028 10036 10042 10050 10057 10063 10069 10075 10080 10087 10095 10104 10113 10122 10130 10136 10143 10150 10158 10165 10173 10184 10193 10198 10204 10210 10217 10224 10231 10239 10244 10248 10253 10261 10267 10271 10274 10277 10280 10283 10285 10285 10281 10287
10012 10018 10024 10031 10037 10044 10051 10059 10066 10074 10082 10088 10095 10103 10112 10119 10127 10133 10139 10144 10150 10159 10167 10172 10178 10185 10191 10199 10206 10212 10219 10226 10232 10238 10244 10249 10253 10257 10260 10263 10266 10267 10267 10266
10001 10007 10011 10017 10024 10032 10037 10042 10050 10057 10064 10071 10079 10084 10091 10096 10104 10111 10117 10125 10131 10136 10142 10147 10151 10158 10166 10173 10179 10187 10195 10202 10209 10215 10221 10226 10231 10236 10240 10243 10245 10248 10249 10248